{"data":{"norad_id":57847,"epoch":"2026-09-20T08:57:11.234880Z","epoch_age_seconds":146150,"freshness":"FRESH","line1":"1 57847U 23141H   26263.37304670  .00001355  00000+0  55406-4 0  9998","line2":"2 57847  53.1596  98.4688 0001473 129.3407 230.7725 15.31708864170159","mean_motion":15.31708864,"eccentricity":0.0001473,"inclination_deg":53.1596,"raan_deg":98.4688,"arg_perigee_deg":129.3407,"mean_anomaly_deg":230.7725,"bstar":5.5406e-5,"rev_number":17015,"period_min":94.012643906721,"perigee_km":469.70473654103,"apogee_km":471.72240791961,"semimajor_km":6848.8505722303,"source":"CELESTRAK","updated_at":"2026-09-21T09:00:33.712307Z"}}